﻿測定場所 (Monitoring sites),日付 (Measurement date),時間 (Measurement time),線量率 最大値 (max) μGy/h,線量率 最小値 (min) μGy/h,線量率 平均値 (average) μGy/h,
新宿 (Shinjuku),2011-09-18,23:00～23:59,0.0577,0.0520,0.0548,
新宿 (Shinjuku),2011-09-18,22:00～22:59,0.0579,0.0527,0.0551,
新宿 (Shinjuku),2011-09-18,21:00～21:59,0.0575,0.0528,0.0549,
新宿 (Shinjuku),2011-09-18,20:00～20:59,0.0577,0.0515,0.0552,
新宿 (Shinjuku),2011-09-18,19:00～19:59,0.0574,0.0529,0.0550,
新宿 (Shinjuku),2011-09-18,18:00～18:59,0.0576,0.0522,0.0550,
新宿 (Shinjuku),2011-09-18,17:00～17:59,0.0568,0.0523,0.0548,
新宿 (Shinjuku),2011-09-18,16:00～16:59,0.0576,0.0528,0.0552,
新宿 (Shinjuku),2011-09-18,15:00～15:59,0.0583,0.0530,0.0554,
新宿 (Shinjuku),2011-09-18,14:00～14:59,0.0587,0.0530,0.0558,
新宿 (Shinjuku),2011-09-18,13:00～13:59,0.0596,0.0530,0.0557,
新宿 (Shinjuku),2011-09-18,12:00～12:59,0.0578,0.0523,0.0553,
新宿 (Shinjuku),2011-09-18,11:00～11:59,0.0583,0.0527,0.0557,
新宿 (Shinjuku),2011-09-18,10:00～10:59,0.0579,0.0525,0.0553,
新宿 (Shinjuku),2011-09-18,09:00～09:59,0.0578,0.0535,0.0558,
新宿 (Shinjuku),2011-09-18,08:00～08:59,0.0588,0.0534,0.0558,
新宿 (Shinjuku),2011-09-18,07:00～07:59,0.0586,0.0525,0.0556,
新宿 (Shinjuku),2011-09-18,06:00～06:59,0.0579,0.0524,0.0553,
新宿 (Shinjuku),2011-09-18,05:00～05:59,0.0567,0.0516,0.0547,
新宿 (Shinjuku),2011-09-18,04:00～04:59,0.0573,0.0523,0.0547,
新宿 (Shinjuku),2011-09-18,03:00～03:59,0.0575,0.0530,0.0551,
新宿 (Shinjuku),2011-09-18,02:00～02:59,0.0586,0.0510,0.0547,
新宿 (Shinjuku),2011-09-18,01:00～01:59,0.0578,0.0523,0.0549,
新宿 (Shinjuku),2011-09-18,00:00～00:59,0.0572,0.0527,0.0548,
新宿 (Shinjuku),2011-09-17,23:00～23:59,0.0578,0.0522,0.0547,
新宿 (Shinjuku),2011-09-17,22:00～22:59,0.0569,0.0520,0.0546,
新宿 (Shinjuku),2011-09-17,21:00～21:59,0.0576,0.0521,0.0548,
新宿 (Shinjuku),2011-09-17,20:00～20:59,0.0574,0.0529,0.0553,
新宿 (Shinjuku),2011-09-17,19:00～19:59,0.0584,0.0532,0.0550,
新宿 (Shinjuku),2011-09-17,18:00～18:59,0.0575,0.0524,0.0551,
新宿 (Shinjuku),2011-09-17,17:00～17:59,0.0573,0.0519,0.0548,
新宿 (Shinjuku),2011-09-17,16:00～16:59,0.0565,0.0521,0.0544,
新宿 (Shinjuku),2011-09-17,15:00～15:59,0.0577,0.0527,0.0551,
新宿 (Shinjuku),2011-09-17,14:00～14:59,0.0575,0.0517,0.0549,
新宿 (Shinjuku),2011-09-17,13:00～13:59,0.0572,0.0524,0.0551,
新宿 (Shinjuku),2011-09-17,12:00～12:59,0.0576,0.0533,0.0554,
新宿 (Shinjuku),2011-09-17,11:00～11:59,0.0576,0.0526,0.0552,
新宿 (Shinjuku),2011-09-17,10:00～10:59,0.0582,0.0531,0.0552,
新宿 (Shinjuku),2011-09-17,09:00～09:59,0.0583,0.0533,0.0553,
新宿 (Shinjuku),2011-09-17,08:00～08:59,0.0573,0.0524,0.0549,
新宿 (Shinjuku),2011-09-17,07:00～07:59,0.0577,0.0523,0.0550,
新宿 (Shinjuku),2011-09-17,06:00～06:59,0.0579,0.0515,0.0547,
新宿 (Shinjuku),2011-09-17,05:00～05:59,0.0567,0.0519,0.0545,
新宿 (Shinjuku),2011-09-17,04:00～04:59,0.0572,0.0520,0.0544,
新宿 (Shinjuku),2011-09-17,03:00～03:59,0.0568,0.0523,0.0543,
新宿 (Shinjuku),2011-09-17,02:00～02:59,0.0583,0.0522,0.0548,
新宿 (Shinjuku),2011-09-17,01:00～01:59,0.0572,0.0527,0.0548,
新宿 (Shinjuku),2011-09-17,00:00～00:59,0.0593,0.0516,0.0546,
新宿 (Shinjuku),2011-09-16,23:00～23:59,0.0568,0.0525,0.0546,
新宿 (Shinjuku),2011-09-16,22:00～22:59,0.0570,0.0526,0.0550,
新宿 (Shinjuku),2011-09-16,21:00～21:59,0.0577,0.0526,0.0550,
新宿 (Shinjuku),2011-09-16,20:00～20:59,0.0583,0.0522,0.0552,
新宿 (Shinjuku),2011-09-16,19:00～19:59,0.0581,0.0523,0.0550,
新宿 (Shinjuku),2011-09-16,18:00～18:59,0.0578,0.0530,0.0551,
新宿 (Shinjuku),2011-09-16,17:00～17:59,0.0581,0.0522,0.0551,
新宿 (Shinjuku),2011-09-16,16:00～16:59,0.0587,0.0527,0.0554,
新宿 (Shinjuku),2011-09-16,15:00～15:59,0.0578,0.0513,0.0552,
新宿 (Shinjuku),2011-09-16,14:00～14:59,0.0586,0.0529,0.0551,
新宿 (Shinjuku),2011-09-16,13:00～13:59,0.0586,0.0527,0.0555,
新宿 (Shinjuku),2011-09-16,12:00～12:59,0.0578,0.0531,0.0555,
新宿 (Shinjuku),2011-09-16,11:00～11:59,0.0576,0.0533,0.0556,
新宿 (Shinjuku),2011-09-16,10:00～10:59,0.0586,0.0527,0.0555,
新宿 (Shinjuku),2011-09-16,09:00～09:59,0.0578,0.0523,0.0556,
新宿 (Shinjuku),2011-09-16,08:00～08:59,0.0589,0.0527,0.0554,
新宿 (Shinjuku),2011-09-16,07:00～07:59,0.0579,0.0531,0.0553,
新宿 (Shinjuku),2011-09-16,06:00～06:59,0.0577,0.0531,0.0553,
新宿 (Shinjuku),2011-09-16,05:00～05:59,0.0574,0.0514,0.0551,
新宿 (Shinjuku),2011-09-16,04:00～04:59,0.0584,0.0523,0.0550,
新宿 (Shinjuku),2011-09-16,03:00～03:59,0.0576,0.0523,0.0552,
新宿 (Shinjuku),2011-09-16,02:00～02:59,0.0578,0.0523,0.0549,
新宿 (Shinjuku),2011-09-16,01:00～01:59,0.0574,0.0523,0.0549,
新宿 (Shinjuku),2011-09-16,00:00～00:59,0.0573,0.0527,0.0551,
新宿 (Shinjuku),2011-09-15,23:00～23:59,0.0584,0.0523,0.0552,
新宿 (Shinjuku),2011-09-15,22:00～22:59,0.0586,0.0520,0.0550,
新宿 (Shinjuku),2011-09-15,21:00～21:59,0.0579,0.0529,0.0552,
新宿 (Shinjuku),2011-09-15,20:00～20:59,0.0573,0.0520,0.0552,
新宿 (Shinjuku),2011-09-15,19:00～19:59,0.0579,0.0530,0.0551,
新宿 (Shinjuku),2011-09-15,18:00～18:59,0.0574,0.0529,0.0548,
新宿 (Shinjuku),2011-09-15,17:00～17:59,0.0569,0.0517,0.0546,
新宿 (Shinjuku),2011-09-15,16:00～16:59,0.0576,0.0532,0.0553,
新宿 (Shinjuku),2011-09-15,15:00～15:59,0.0582,0.0528,0.0558,
新宿 (Shinjuku),2011-09-15,14:00～14:59,0.0590,0.0527,0.0554,
新宿 (Shinjuku),2011-09-15,13:00～13:59,0.0583,0.0529,0.0555,
新宿 (Shinjuku),2011-09-15,12:00～12:59,0.0595,0.0523,0.0557,
新宿 (Shinjuku),2011-09-15,11:00～11:59,0.0586,0.0520,0.0556,
新宿 (Shinjuku),2011-09-15,10:00～10:59,0.0577,0.0534,0.0556,
新宿 (Shinjuku),2011-09-15,09:00～09:59,0.0584,0.0524,0.0560,
新宿 (Shinjuku),2011-09-15,08:00～08:59,0.0579,0.0535,0.0556,
新宿 (Shinjuku),2011-09-15,07:00～07:59,0.0584,0.0526,0.0557,
新宿 (Shinjuku),2011-09-15,06:00～06:59,0.0579,0.0530,0.0550,
新宿 (Shinjuku),2011-09-15,05:00～05:59,0.0572,0.0526,0.0551,
新宿 (Shinjuku),2011-09-15,04:00～04:59,0.0589,0.0530,0.0550,
新宿 (Shinjuku),2011-09-15,03:00～03:59,0.0580,0.0515,0.0550,
新宿 (Shinjuku),2011-09-15,02:00～02:59,0.0576,0.0527,0.0549,
新宿 (Shinjuku),2011-09-15,01:00～01:59,0.0579,0.0520,0.0547,
新宿 (Shinjuku),2011-09-15,00:00～00:59,0.0570,0.0530,0.0552,
新宿 (Shinjuku),2011-09-14,23:00～23:59,0.0592,0.0520,0.0550,
新宿 (Shinjuku),2011-09-14,22:00～22:59,0.0577,0.0527,0.0551,
新宿 (Shinjuku),2011-09-14,21:00～21:59,0.0578,0.0523,0.0551,
新宿 (Shinjuku),2011-09-14,20:00～20:59,0.0576,0.0530,0.0551,
新宿 (Shinjuku),2011-09-14,19:00～19:59,0.0578,0.0521,0.0551,
新宿 (Shinjuku),2011-09-14,18:00～18:59,0.0570,0.0518,0.0549,
新宿 (Shinjuku),2011-09-14,17:00～17:59,0.0572,0.0521,0.0547,
新宿 (Shinjuku),2011-09-14,16:00～16:59,0.0576,0.0528,0.0553,
新宿 (Shinjuku),2011-09-14,15:00～15:59,0.0589,0.0530,0.0556,
新宿 (Shinjuku),2011-09-14,14:00～14:59,0.0583,0.0530,0.0560,
新宿 (Shinjuku),2011-09-14,13:00～13:59,0.0577,0.0530,0.0555,
新宿 (Shinjuku),2011-09-14,12:00～12:59,0.0604,0.0537,0.0562,
新宿 (Shinjuku),2011-09-14,11:00～11:59,0.0582,0.0537,0.0559,
新宿 (Shinjuku),2011-09-14,10:00～10:59,0.0591,0.0534,0.0561,
新宿 (Shinjuku),2011-09-14,09:00～09:59,0.0584,0.0541,0.0565,
新宿 (Shinjuku),2011-09-14,08:00～08:59,0.0598,0.0530,0.0563,
新宿 (Shinjuku),2011-09-14,07:00～07:59,0.0587,0.0534,0.0561,
新宿 (Shinjuku),2011-09-14,06:00～06:59,0.0583,0.0534,0.0559,
新宿 (Shinjuku),2011-09-14,05:00～05:59,0.0583,0.0533,0.0556,
新宿 (Shinjuku),2011-09-14,04:00～04:59,0.0574,0.0533,0.0553,
新宿 (Shinjuku),2011-09-14,03:00～03:59,0.0576,0.0517,0.0551,
新宿 (Shinjuku),2011-09-14,02:00～02:59,0.0594,0.0520,0.0551,
新宿 (Shinjuku),2011-09-14,01:00～01:59,0.0576,0.0530,0.0548,
新宿 (Shinjuku),2011-09-14,00:00～00:59,0.0580,0.0520,0.0552,
新宿 (Shinjuku),2011-09-13,23:00～23:59,0.0578,0.0529,0.0553,
新宿 (Shinjuku),2011-09-13,22:00～22:59,0.0593,0.0521,0.0550,
新宿 (Shinjuku),2011-09-13,21:00～21:59,0.0572,0.0520,0.0550,
新宿 (Shinjuku),2011-09-13,20:00～20:59,0.0568,0.0527,0.0550,
新宿 (Shinjuku),2011-09-13,19:00～19:59,0.0573,0.0514,0.0550,
新宿 (Shinjuku),2011-09-13,18:00～18:59,0.0573,0.0529,0.0549,
新宿 (Shinjuku),2011-09-13,17:00～17:59,0.0577,0.0527,0.0549,
新宿 (Shinjuku),2011-09-13,16:00～16:59,0.0582,0.0519,0.0552,
新宿 (Shinjuku),2011-09-13,15:00～15:59,0.0578,0.0524,0.0555,
新宿 (Shinjuku),2011-09-13,14:00～14:59,0.0583,0.0529,0.0555,
新宿 (Shinjuku),2011-09-13,13:00～13:59,0.0572,0.0531,0.0553,
新宿 (Shinjuku),2011-09-13,12:00～12:59,0.0583,0.0530,0.0556,
新宿 (Shinjuku),2011-09-13,11:00～11:59,0.0592,0.0528,0.0558,
新宿 (Shinjuku),2011-09-13,10:00～10:59,0.0595,0.0537,0.0562,
新宿 (Shinjuku),2011-09-13,09:00～09:59,0.0584,0.0538,0.0563,
新宿 (Shinjuku),2011-09-13,08:00～08:59,0.0589,0.0543,0.0563,
新宿 (Shinjuku),2011-09-13,07:00～07:59,0.0585,0.0525,0.0557,
新宿 (Shinjuku),2011-09-13,06:00～06:59,0.0576,0.0534,0.0554,
新宿 (Shinjuku),2011-09-13,05:00～05:59,0.0580,0.0523,0.0554,
新宿 (Shinjuku),2011-09-13,04:00～04:59,0.0569,0.0525,0.0551,
新宿 (Shinjuku),2011-09-13,03:00～03:59,0.0582,0.0523,0.0552,
新宿 (Shinjuku),2011-09-13,02:00～02:59,0.0579,0.0527,0.0551,
新宿 (Shinjuku),2011-09-13,01:00～01:59,0.0576,0.0524,0.0550,
新宿 (Shinjuku),2011-09-13,00:00～00:59,0.0581,0.0522,0.0551,
新宿 (Shinjuku),2011-09-12,23:00～23:59,0.0571,0.0518,0.0550,
新宿 (Shinjuku),2011-09-12,22:00～22:59,0.0578,0.0522,0.0549,
新宿 (Shinjuku),2011-09-12,21:00～21:59,0.0575,0.0522,0.0550,
新宿 (Shinjuku),2011-09-12,20:00～20:59,0.0574,0.0523,0.0549,
新宿 (Shinjuku),2011-09-12,19:00～19:59,0.0572,0.0523,0.0549,
新宿 (Shinjuku),2011-09-12,18:00～18:59,0.0578,0.0516,0.0551,
新宿 (Shinjuku),2011-09-12,17:00～17:59,0.0583,0.0528,0.0548,
新宿 (Shinjuku),2011-09-12,16:00～16:59,0.0586,0.0521,0.0552,
新宿 (Shinjuku),2011-09-12,15:00～15:59,0.0595,0.0533,0.0557,
新宿 (Shinjuku),2011-09-12,14:00～14:59,0.0579,0.0530,0.0556,
新宿 (Shinjuku),2011-09-12,13:00～13:59,0.0579,0.0532,0.0554,
新宿 (Shinjuku),2011-09-12,12:00～12:59,0.0583,0.0530,0.0554,
新宿 (Shinjuku),2011-09-12,11:00～11:59,0.0586,0.0530,0.0556,
新宿 (Shinjuku),2011-09-12,10:00～10:59,0.0586,0.0541,0.0561,
新宿 (Shinjuku),2011-09-12,09:00～09:59,0.0603,0.0539,0.0561,
新宿 (Shinjuku),2011-09-12,08:00～08:59,0.0586,0.0535,0.0561,
新宿 (Shinjuku),2011-09-12,07:00～07:59,0.0582,0.0534,0.0560,
新宿 (Shinjuku),2011-09-12,06:00～06:59,0.0583,0.0523,0.0554,
新宿 (Shinjuku),2011-09-12,05:00～05:59,0.0573,0.0523,0.0549,
新宿 (Shinjuku),2011-09-12,04:00～04:59,0.0582,0.0516,0.0551,
新宿 (Shinjuku),2011-09-12,03:00～03:59,0.0567,0.0521,0.0548,
新宿 (Shinjuku),2011-09-12,02:00～02:59,0.0569,0.0530,0.0550,
新宿 (Shinjuku),2011-09-12,01:00～01:59,0.0570,0.0522,0.0548,
新宿 (Shinjuku),2011-09-12,00:00～00:59,0.0577,0.0525,0.0551,
